Location: Sabalos
(43.2860°N, 0.1414°E)
Time: 10:07:18
(UTC+00:00)

Resurs 01 Rocket - Pass Details

Date: 05 July 2020
Orbit: 634 x 644 km, 98.0° (Epoch: 06 August)

Event Time Altitude Azimuth Distance (km) Brightness Sun altitude
Exits shadow 20:45:39 - 176° (S) 2,437 4.2 -9.8°
Reaches altitude 10° 20:46:41 10° 178° (S) 2,021 3.8 -10.0°
Maximum altitude 20:51:02 61° 259° (W) 728 2.1 -10.5°
Drops below altitude 10° 20:55:25 10° 340° (NNW) 2,032 5.4 -11.1°
Sets 20:57:39 0° 344° (NNW) 2,944 6.3 -11.4°
